| time (UTC) | temp F | wind direction | speed knots | gust knots | rain 1hr in | rain 24hr in | rain mn in | humidity % | barometer mb |
| 20260506033038 | 69 | 338 | 3.5 | 5.2 | 0.00 | 0.00 | 0.00 | 37 | 1009.4 |
| 20260506032037 | 69 | 0 | 5.2 | 9.6 | 0.00 | 0.00 | 0.00 | 36 | 1008.9 |
| 20260506031117 | 70 | 338 | 6.1 | 9.6 | 0.00 | 0.00 | 0.00 | 36 | 1008.7 |
| 20260506030016 | 71 | 338 | 6.1 | 9.6 | 0.00 | 0.00 | 0.00 | 35 | 1008.6 |
| 20260506025016 | 71 | 338 | 4.3 | 7.8 | 0.00 | 0.00 | 0.00 | 36 | 1008.4 |
| 20260506024037 | 72 | 338 | 5.2 | 8.7 | 0.00 | 0.00 | 0.00 | 35 | 1008.1 |
| 20260506023016 | 73 | 338 | 6.1 | 9.6 | 0.00 | 0.00 | 0.00 | 34 | 1007.9 |
| 20260506022017 | 73 | 338 | 7.0 | 9.6 | 0.00 | 0.00 | 0.00 | 33 | 1007.7 |
| 20260506021016 | 74 | 0 | 7.8 | 13.0 | 0.00 | 0.00 | 0.00 | 32 | 1007.5 |
| 20260506020016 | 75 | 338 | 7.0 | 11.3 | 0.00 | 0.00 | 0.00 | 31 | 1007.6 |
| 20260506015036 | 76 | 338 | 8.7 | 15.6 | 0.00 | 0.00 | 0.00 | 29 | 1007.5 |
| 20260506014036 | 76 | 0 | 8.7 | 13.9 | 0.00 | 0.00 | 0.00 | 30 | 1007.4 |
| 20260506013016 | 76 | 0 | 7.8 | 11.3 | 0.00 | 0.00 | 0.00 | 29 | 1007.2 |
| 20260506012056 | 77 | 0 | 7.8 | 16.5 | 0.00 | 0.00 | 0.00 | 28 | 1006.9 |
| 20260506011037 | 77 | 0 | 8.7 | 13.9 | 0.00 | 0.00 | 0.00 | 28 | 1006.8 |
| 20260506010016 | 78 | 0 | 7.0 | 13.0 | 0.00 | 0.00 | 0.00 | 28 | 1006.5 |
| 20260506005016 | 78 | 0 | 7.8 | 12.2 | 0.00 | 0.00 | 0.00 | 28 | 1006.6 |
| 20260506004016 | 78 | 0 | 9.6 | 15.6 | 0.00 | 0.00 | 0.00 | 27 | 1006.7 |
| 20260506003016 | 79 | 0 | 10.4 | 18.2 | 0.00 | 0.00 | 0.00 | 26 | 1006.7 |
| 20260506002016 | 79 | 0 | 9.6 | 14.8 | 0.00 | 0.00 | 0.00 | 27 | 1006.8 |
| 20260506001016 | 80 | 0 | 9.6 | 14.8 | 0.00 | 0.00 | 0.00 | 27 | 1006.8 |
| 20260506000016 | 80 | 0 | 8.7 | 15.6 | 0.00 | 0.00 | 0.00 | 29 | 1006.9 |
| 20260505235036 | 79 | 0 | 11.3 | 17.4 | 0.00 | 0.00 | 0.00 | 25 | 1006.8 |
| 20260505234016 | 79 | 0 | 7.8 | 14.8 | 0.00 | 0.00 | 0.00 | 28 | 1006.8 |
| 20260505233016 | 80 | 0 | 10.4 | 14.8 | 0.00 | 0.00 | 0.00 | 28 | 1006.9 |
| 20260505232016 | 80 | 23 | 12.2 | 18.2 | 0.00 | 0.00 | 0.00 | 28 | 1007.1 |
| 20260505231016 | 80 | 338 | 7.8 | 13.9 | 0.00 | 0.00 | 0.00 | 27 | 1007.1 |
| 20260505230016 | 80 | 0 | 6.1 | 12.2 | 0.00 | 0.00 | 0.00 | 29 | 1007.1 |
| 20260505225016 | 80 | 0 | 8.7 | 14.8 | 0.00 | 0.00 | 0.00 | 28 | 1007.1 |
| 20260505224016 | 80 | 0 | 7.8 | 11.3 | 0.00 | 0.00 | 0.00 | 29 | 1007.3 |
| 20260505223116 | 80 | 0 | 7.8 | 13.9 | 0.00 | 0.00 | 0.00 | 28 | 1007.1 |
| 20260505222016 | 81 | 0 | 8.7 | 14.8 | 0.00 | 0.00 | 0.00 | 27 | 1007.3 |
| 20260505221018 | 81 | 338 | 7.0 | 10.4 | 0.00 | 0.00 | 0.00 | 27 | 1007.5 |
| 20260505220016 | 81 | 0 | 5.2 | 10.4 | 0.00 | 0.00 | 0.00 | 29 | 1007.6 |
| 20260505215016 | 80 | 23 | 9.6 | 14.8 | 0.00 | 0.00 | 0.00 | 25 | 1007.7 |
| 20260505214016 | 80 | 0 | 8.7 | 13.0 | 0.00 | 0.00 | 0.00 | 23 | 1008.0 |
| 20260505213016 | 81 | 338 | 7.8 | 13.0 | 0.00 | 0.00 | 0.00 | 26 | 1008.0 |
| 20260505212016 | 80 | 0 | 7.8 | 13.0 | 0.00 | 0.00 | 0.00 | 27 | 1008.0 |
| 20260505211036 | 80 | 23 | 4.3 | 10.4 | 0.00 | 0.00 | 0.00 | 28 | 1008.1 |
| 20260505210015 | 80 | 338 | 5.2 | 10.4 | 0.00 | 0.00 | 0.00 | 27 | 1008.3 |
| 20260505205015 | 80 | 338 | 5.2 | 8.7 | 0.00 | 0.00 | 0.00 | 30 | 1008.3 |
| 20260505204016 | 78 | 338 | 4.3 | 9.6 | 0.00 | 0.00 | 0.00 | 29 | 1008.4 |
| 20260505203037 | 77 | 45 | 2.6 | 5.2 | 0.00 | 0.00 | 0.00 | 31 | 1008.3 |
| 20260505202015 | 77 | 45 | 6.1 | 10.4 | 0.00 | 0.00 | 0.00 | 28 | 1008.3 |
| 20260505201015 | 79 | 23 | 4.3 | 13.0 | 0.00 | 0.00 | 0.00 | 31 | 1008.7 |
| 20260505200016 | 79 | 45 | 2.6 | 8.7 | 0.00 | 0.00 | 0.00 | 30 | 1008.6 |
| 20260505195015 | 79 | 45 | 7.0 | 11.3 | 0.00 | 0.00 | 0.00 | 29 | 1008.7 |
| 20260505194055 | 79 | 338 | 5.2 | 9.6 | 0.00 | 0.00 | 0.00 | 30 | 1008.9 |
| 20260505193039 | 79 | 45 | 7.8 | 13.0 | 0.00 | 0.00 | 0.00 | 29 | 1008.9 |
| 20260505192015 | 78 | 338 | 7.8 | 13.9 | 0.00 | 0.00 | 0.00 | 29 | 1008.9 |
| 20260505191015 | 78 | 0 | 8.7 | 13.0 | 0.00 | 0.00 | 0.00 | 29 | 1008.9 |
| 20260505190017 | 78 | 45 | 7.0 | 10.4 | 0.00 | 0.00 | 0.00 | 28 | 1008.9 |
| 20260505185017 | 77 | 45 | 10.4 | 15.6 | 0.00 | 0.00 | 0.00 | 29 | 1008.9 |
| 20260505184018 | 77 | 45 | 7.8 | 11.3 | 0.00 | 0.00 | 0.00 | 29 | 1008.9 |
| 20260505183036 | 77 | 45 | 11.3 | 16.5 | 0.00 | 0.00 | 0.00 | 27 | 1009.0 |
| 20260505182017 | 77 | 45 | 10.4 | 16.5 | 0.00 | 0.00 | 0.00 | 28 | 1009.2 |
| 20260505181017 | 77 | 45 | 5.2 | 10.4 | 0.00 | 0.00 | 0.00 | 32 | 1009.4 |
| 20260505180017 | 76 | 45 | 5.2 | 8.7 | 0.00 | 0.00 | 0.00 | 32 | 1009.4 |
| 20260505175017 | 76 | 23 | 5.2 | 9.6 | 0.00 | 0.00 | 0.00 | 30 | 1009.4 |
| 20260505174017 | 76 | 23 | 5.2 | 11.3 | 0.00 | 0.00 | 0.00 | 33 | 1009.4 |
| 20260505173017 | 76 | 338 | 6.1 | 9.6 | 0.00 | 0.00 | 0.00 | 32 | 1009.5 |
| 20260505172017 | 76 | 0 | 5.2 | 9.6 | 0.00 | 0.00 | 0.00 | 33 | 1009.4 |
| 20260505171017 | 76 | 45 | 6.1 | 10.4 | 0.00 | 0.00 | 0.00 | 31 | 1009.3 |
| 20260505170017 | 76 | 23 | 5.2 | 10.4 | 0.00 | 0.00 | 0.00 | 34 | 1009.1 |
| 20260505165017 | 75 | 45 | 5.2 | 10.4 | 0.00 | 0.00 | 0.00 | 35 | 1009.0 |
| 20260505164017 | 74 | 45 | 7.0 | 10.4 | 0.00 | 0.00 | 0.00 | 33 | 1009.0 |
| 20260505163017 | 74 | 0 | 5.2 | 9.6 | 0.00 | 0.00 | 0.00 | 34 | 1009.2 |
| 20260505162017 | 74 | 45 | 6.1 | 8.7 | 0.00 | 0.00 | 0.00 | 38 | 1009.2 |
| 20260505161017 | 74 | 45 | 3.5 | 7.8 | 0.00 | 0.00 | 0.00 | 37 | 1009.2 |
| 20260505153017 | 73 | 45 | 3.5 | 7.0 | 0.00 | 0.00 | 0.00 | 41 | 1008.9 |
| 20260505152017 | 71 | 225 | 2.6 | 5.2 | 0.00 | 0.00 | 0.00 | 45 | 1008.7 |
| 20260505151017 | 71 | 180 | 1.7 | 5.2 | 0.00 | 0.00 | 0.00 | 43 | 1008.8 |
| 20260505125017 | 60 | 0.0 | 0.9 | 0.00 | 0.00 | 0.00 | 57 | 1007.0 | |
| 20260505124017 | 62 | 0 | 1.7 | 4.3 | 0.00 | 0.00 | 0.00 | 53 | 1007.2 |
| 20260505123016 | 62 | 338 | 3.5 | 7.0 | 0.00 | 0.00 | 0.00 | 53 | 1007.0 |
| 20260505122017 | 61 | 338 | 3.5 | 6.1 | 0.00 | 0.00 | 0.00 | 53 | 1006.9 |
| 20260505121016 | 62 | 338 | 2.6 | 7.8 | 0.00 | 0.00 | 0.00 | 52 | 1007.0 |
| 20260505120017 | 61 | 338 | 1.7 | 2.6 | 0.00 | 0.00 | 0.00 | 53 | 1006.9 |
| 20260505115017 | 61 | 338 | 0.9 | 2.6 | 0.00 | 0.00 | 0.00 | 52 | 1006.8 |
| 20260505114036 | 59 | 0 | 1.7 | 2.6 | 0.00 | 0.00 | 0.00 | 55 | 1006.6 |
| 20260505113016 | 61 | 0 | 1.7 | 4.3 | 0.00 | 0.00 | 0.00 | 53 | 1006.7 |
| 20260505112016 | 62 | 270 | 2.6 | 4.3 | 0.00 | 0.00 | 0.00 | 51 | 1006.5 |
| 20260505111017 | 62 | 0 | 1.7 | 4.3 | 0.00 | 0.00 | 0.00 | 51 | 1006.4 |
| 20260505102016 | 61 | 0.0 | 0.9 | 0.00 | 0.00 | 0.00 | 51 | 1006.0 | |
| 20260505101016 | 62 | 270 | 0.9 | 1.7 | 0.00 | 0.00 | 0.00 | 50 | 1006.1 |
| 20260505100016 | 62 | 338 | 0.9 | 1.7 | 0.00 | 0.00 | 0.00 | 51 | 1005.9 |
| 20260505095016 | 63 | 270 | 0.9 | 2.6 | 0.00 | 0.00 | 0.00 | 49 | 1005.8 |
| 20260505094016 | 64 | 270 | 0.9 | 2.6 | 0.00 | 0.00 | 0.00 | 47 | 1005.8 |
| 20260505093036 | 64 | 315 | 2.6 | 5.2 | 0.00 | 0.00 | 0.00 | 47 | 1005.7 |
| 20260505092016 | 64 | 315 | 5.2 | 8.7 | 0.00 | 0.00 | 0.00 | 47 | 1005.5 |
| 20260505091016 | 64 | 338 | 5.2 | 8.7 | 0.00 | 0.00 | 0.00 | 46 | 1005.5 |
| 20260505090016 | 64 | 0 | 2.6 | 7.0 | 0.00 | 0.00 | 0.00 | 46 | 1005.6 |
| 20260505085016 | 65 | 338 | 7.0 | 11.3 | 0.00 | 0.00 | 0.00 | 44 | 1005.6 |
| 20260505084016 | 66 | 338 | 7.0 | 10.4 | 0.00 | 0.00 | 0.00 | 43 | 1005.6 |
| 20260505083016 | 66 | 338 | 9.6 | 13.0 | 0.00 | 0.00 | 0.00 | 42 | 1005.8 |
| 20260505082036 | 66 | 338 | 6.1 | 10.4 | 0.00 | 0.00 | 0.00 | 42 | 1005.8 |
| 20260505081016 | 66 | 0 | 6.1 | 12.2 | 0.00 | 0.00 | 0.00 | 42 | 1005.8 |
| 20260505080016 | 66 | 338 | 3.5 | 6.1 | 0.00 | 0.00 | 0.00 | 42 | 1005.8 |
| 20260505075016 | 66 | 338 | 5.2 | 7.8 | 0.00 | 0.00 | 0.00 | 42 | 1005.8 |
| 20260505074036 | 66 | 338 | 5.2 | 8.7 | 0.00 | 0.00 | 0.00 | 42 | 1005.9 |
| 20260505073016 | 66 | 0 | 1.7 | 4.3 | 0.00 | 0.00 | 0.00 | 41 | 1005.9 |
| 20260505072016 | 66 | 0 | 4.3 | 7.0 | 0.00 | 0.00 | 0.00 | 41 | 1005.9 |
| 20260505071017 | 66 | 0 | 4.3 | 6.1 | 0.00 | 0.00 | 0.00 | 40 | 1005.8 |
| 20260505070056 | 66 | 0 | 4.3 | 7.0 | 0.00 | 0.00 | 0.00 | 40 | 1005.7 |
| 20260505065016 | 68 | 23 | 7.8 | 13.0 | 0.00 | 0.00 | 0.00 | 38 | 1005.8 |
| 20260505064016 | 68 | 23 | 7.8 | 13.9 | 0.00 | 0.00 | 0.00 | 37 | 1005.5 |
| 20260505063016 | 68 | 45 | 8.7 | 16.5 | 0.00 | 0.00 | 0.00 | 36 | 1005.5 |
| 20260505062056 | 68 | 45 | 7.0 | 12.2 | 0.00 | 0.00 | 0.00 | 37 | 1005.7 |
| 20260505061016 | 68 | 23 | 6.1 | 13.0 | 0.00 | 0.00 | 0.00 | 36 | 1005.5 |
| 20260505060016 | 69 | 23 | 8.7 | 12.2 | 0.00 | 0.00 | 0.00 | 35 | 1005.3 |
| 20260505055017 | 69 | 23 | 7.8 | 12.2 | 0.00 | 0.00 | 0.00 | 35 | 1005.2 |
| 20260505054037 | 69 | 23 | 6.1 | 10.4 | 0.00 | 0.00 | 0.00 | 34 | 1005.1 |
| 20260505053017 | 69 | 23 | 5.2 | 8.7 | 0.00 | 0.00 | 0.00 | 33 | 1005.0 |
| 20260505052017 | 69 | 0 | 5.2 | 9.6 | 0.00 | 0.00 | 0.00 | 33 | 1004.8 |
| 20260505051017 | 69 | 23 | 6.1 | 10.4 | 0.00 | 0.00 | 0.00 | 34 | 1004.8 |
| 20260505041017 | 71 | 0 | 5.2 | 10.4 | 0.00 | 0.00 | 0.00 | 33 | 1004.1 |
| 20260505040017 | 71 | 0 | 4.3 | 8.7 | 0.00 | 0.00 | 0.00 | 33 | 1004.0 |
| 20260505035017 | 70 | 0 | 2.6 | 7.8 | 0.00 | 0.00 | 0.00 | 34 | 1003.7 |
| 20260505034017 | 70 | 0 | 2.6 | 4.3 | 0.00 | 0.00 | 0.00 | 36 | 1003.4 |